Location: Gandikunta
(16.3784°N, 80.8378°E)
Time: 11:54:31
(UTC+00:00)

Cosmos 2251 Rocket - Pass Details

Date: 19 May 2025
Orbit: 761 x 788 km, 74.0° (Epoch: 12 June)

Event Time Altitude Azimuth Distance (km) Brightness Sun altitude
Exits shadow 22:49:17 29° 257° (WSW) 1,374 4.2 -17.4°
Maximum altitude 22:50:36 33° 286° (WNW) 1,262 4.2 -17.1°
Drops below altitude 10° 22:55:18 10° 350° (N) 2,306 6.2 -16.1°
Sets 22:57:54 0° 359° (N) 3,238 7.1 -15.5°
